Burlington, CO

11:06 AM MDT on October 20, 2019 (GMT -0600)
Kit Carson County

Weather History for KITR - September, 2019

Change the Weather History Date:

Sunday, September 22, 2019

  Actual Average Record
Temperature  
Mean Temperature 59 °F 61 °F  
Max Temperature 76 °F 76 °F 92 °F (1930)
Min Temperature 42 °F 46 °F 28 °F (1983)
Degree Days  
Heating Degree Days 6    
Growing Degree Days 8 (Base 50)    
Moisture  
Dew Point 41 °F    
Average Humidity 54    
Maximum Humidity 92    
Minimum Humidity 23    
Precipitation  
Precipitation 0.00 in 0.03 in 2.00 in (1941)
Month to date precipitation 0.32 0.89  
Year to date precipitation 14.35 15.04  
Sea Level Pressure  
Sea Level Pressure 29.98 in    
Wind  
Wind Speed 9 mph (WSW)    
Max Wind Speed 18 mph    
Max Gust Speed 29 mph    
Visibility 10 miles    
Events      
T = Trace of Precipitation, MM = Missing Value Source: NWS Daily Summary

Daily Weather History Graph

Daily Weather History Graph

Search for Another Location

Airport or City:

Astronomy

Sep. 22, 2019 Rise Set
Actual Time 6:36 AM MDT 6:46 PM MDT
Civil Twilight 6:09 AM MDT 7:13 PM MDT
Nautical Twilight 5:38 AM MDT 7:44 PM MDT
Astronomical Twilight 5:06 AM MDT 8:16 PM MDT
Moon No Moon Rise 2:41 PM MDT (9/22)
Length of Visible Light 13h 03m
Length of Day
12h 09m
Last Quarter, 43% of the Moon is Illuminated
Sep 22
Last Quarter
Sep 28
New
Oct 5
First Quarter
Oct 13
Full
Oct 21
Last Quarter

Hourly Weather History & Observations

Time (MDT) Temp. Windchill Dew Point Humidity Pressure Visibility Wind Dir Wind Speed Gust Speed Precip Events Conditions
12:53 AM 55.9 °F - 43.0 °F 62% 29.91 in 10.0 mi North 18.4 mph 28.8 mph 0.00 in   Mostly Cloudy
1:53 AM 53.1 °F - 44.1 °F 71% 29.91 in 10.0 mi North 13.8 mph 21.9 mph N/A   Clear
2:53 AM 52.0 °F - 44.1 °F 74% 29.92 in 10.0 mi North 10.4 mph 21.9 mph N/A   Clear
3:53 AM 50.0 °F - 44.1 °F 80% 29.94 in 10.0 mi North 6.9 mph - N/A   Clear
4:53 AM 48.0 °F - 44.1 °F 86% 29.94 in 10.0 mi NE 5.8 mph - N/A   Clear
5:53 AM 46.9 °F - 43.0 °F 86% 29.96 in 10.0 mi North 4.6 mph - N/A   Clear
6:53 AM 42.1 °F 38.4 °F 39.9 °F 92% 30.01 in 10.0 mi WSW 5.8 mph - N/A   Clear
7:53 AM 50.0 °F - 44.1 °F 80% 30.01 in 10.0 mi WNW 6.9 mph - N/A   Clear
8:53 AM 57.0 °F - 45.0 °F 64% 30.01 in 10.0 mi West 6.9 mph - N/A   Clear
9:53 AM 60.1 °F - 44.1 °F 55% 30.02 in 10.0 mi Variable 3.5 mph - N/A   Clear
10:53 AM 66.0 °F - 43.0 °F 43% 29.99 in 10.0 mi West 6.9 mph - N/A   Clear
11:53 AM 69.1 °F - 42.1 °F 38% 29.99 in 10.0 mi Variable 4.6 mph - N/A   Clear
12:53 PM 72.0 °F - 41.0 °F 33% 29.98 in 10.0 mi WSW 9.2 mph - N/A   Clear
1:53 PM 73.0 °F - 39.0 °F 29% 29.95 in 10.0 mi Variable 5.8 mph - N/A   Clear
2:53 PM 75.0 °F - 36.0 °F 24% 29.94 in 10.0 mi Variable 6.9 mph - N/A   Clear
3:53 PM 75.0 °F - 35.1 °F 23% 29.94 in 10.0 mi Calm Calm - N/A   Clear
4:53 PM 75.0 °F - 35.1 °F 23% 29.95 in 10.0 mi Calm Calm - N/A   Clear
5:53 PM 73.9 °F - 36.0 °F 25% 29.96 in 10.0 mi South 5.8 mph - N/A   Clear
6:53 PM 64.0 °F - 37.0 °F 37% 30.01 in 10.0 mi South 8.1 mph - N/A   Clear
7:53 PM 60.1 °F - 37.0 °F 42% 30.02 in 10.0 mi South 9.2 mph - N/A   Clear
8:53 PM 55.0 °F - 37.0 °F 51% 30.03 in 10.0 mi South 6.9 mph - N/A   Clear
9:53 PM 55.0 °F - 39.0 °F 55% 30.04 in 10.0 mi South 9.2 mph - N/A   Clear
10:53 PM 55.0 °F - 41.0 °F 59% 30.03 in 10.0 mi SSW 9.2 mph - N/A   Clear
11:53 PM 54.0 °F - 41.0 °F 62% 30.02 in 10.0 mi SSW 9.2 mph - N/A   Clear